This is the latest recevied weather packets stored in our database for station/object WA1OUI. If no packets are shown the sender has not sent any weather packets the latest 10 day(s).
| Time | Temp. | Humidity | Pressure | Rain* | Wind** | Luminosity | Snow |
|---|---|---|---|---|---|---|---|
| 1777733630 | 11.11° C | 83% | 1009.6 hPa | 0 mm | - | 63 W/m² | - |
| 1777733326 | 11.11° C | 81% | 1009.7 hPa | 0 mm | - | 70 W/m² | - |
| 1777733024 | 11.11° C | 85% | 1009.9 hPa | 0 mm | - | 90 W/m² | - |
| 1777732719 | 11.11° C | 87% | 1009.9 hPa | 0 mm | - | 29 W/m² | - |
| 1777732417 | 11.11° C | 82% | 1009.9 hPa | 0 mm | - | 30 W/m² | - |
| 1777732114 | 11.11° C | 82% | 1009.9 hPa | 0 mm | - | 57 W/m² | - |
| 1777731811 | 11.11° C | 87% | 1009.7 hPa | 0 mm | - | 221 W/m² | - |
| 1777731508 | 11.11° C | 85% | 1009.8 hPa | 0 mm | - | 197 W/m² | - |
| 1777731206 | 11.11° C | 87% | 1009.9 hPa | 0 mm | - | 131 W/m² | - |
| 1777730903 | 11.11° C | 87% | 1009.8 hPa | 0 mm | - | 117 W/m² | - |
| 1777730297 | 10.56° C | 86% | 1009.8 hPa | 0 mm | - | 142 W/m² | - |
| 1777729690 | 10.56° C | 87% | 1010 hPa | 0 mm | - | 159 W/m² | - |
| 1777729083 | 10.56° C | 90% | 1010 hPa | 0 mm | - | 125 W/m² | - |
| 1777728780 | 10.56° C | 87% | 1010.1 hPa | 0 mm | - | 179 W/m² | - |
| 1777728477 | 10.56° C | 91% | 1009.9 hPa | 0 mm | - | 140 W/m² | - |
| 1777728174 | 10° C | 90% | 1010 hPa | 0 mm | - | 174 W/m² | - |
| 1777727871 | 10° C | 91% | 1010.1 hPa | 0 mm | - | 102 W/m² | - |
| 1777727568 | 10° C | 91% | 1009.9 hPa | 0 mm | - | 125 W/m² | - |
| 1777727265 | 10° C | 91% | 1009.8 hPa | 0 mm | - | 123 W/m² | - |
| 1777726963 | 9.44° C | 92% | 1010.1 hPa | 0 mm | - | 103 W/m² | - |
| 1777726659 | 9.44° C | 93% | 1010 hPa | 0 mm | - | 87 W/m² | - |
| 1777726357 | 9.44° C | 95% | 1010 hPa | 0 mm | - | 87 W/m² | - |
| 1777726053 | 9.44° C | 96% | 1010.1 hPa | 0 mm | - | 102 W/m² | - |
| 1777725449 | 9.44° C | 97% | 1010.3 hPa | 0 mm | - | 74 W/m² | - |
| 1777724842 | 8.89° C | 97% | 1010.1 hPa | 0 mm | - | 102 W/m² | - |
* Rain latest hour (hover to see other rain measurements)
** Current wind speed in m/s (hover to see current wind gust speed)